User: anonymous   Login
Location: Caltech
(34.1382°N, 118.1253°W)
Time: 00:07:29
(UTC-08:00)
Language:

OPAL - Orbit

View from above orbital plane
View from above orbital plane
View from above satellite
View from above satellite

Ground track
Ground track

The orbit data is extracted from the following two-line orbital elements,

1 26063U 00004C   14330.11056432  .00000183  00000-0  82024-4 0  1190
2 26063 100.2261 146.1057 0037091 062.5956 297.8990 14.36446039777272
Epoch (UTC): 26 November 2014 02:39:12
Eccentricity: 0.0037091
inclination: 100.2261°
perigee height: 744 km
apogee height: 797 km
right ascension of ascending node: 146.1057°
argument of perigee: 62.5956°
revolutions per day: 14.36446039
mean anomaly at epoch: 297.8990°
orbit number at epoch: 77727

The dashed part of the orbit path shows where the satellite is in the earth's shadow,  

DLR